Sable Island, Nova Scotia

8:56 PM ADT on May 27, 2017 (GMT -0300)
Sable Island

Weather History for CWSA - December, 2012

Change the Weather History Date:

Monday, December 17, 2012

  Actual Average Record
Temperature  
Mean Temperature 36 °F -  
Max Temperature 43 °F 39 °F 51 °F (1999)
Min Temperature 30 °F 28 °F 14 °F (2013)
Degree Days  
Heating Degree Days 28    
Moisture  
Dew Point 30 °F    
Average Humidity 73    
Maximum Humidity 87    
Minimum Humidity 55    
Precipitation  
Precipitation 0.00 in 0.19 in - ()
Sea Level Pressure  
Sea Level Pressure 30.19 in    
Wind  
Wind Speed 13 mph ()    
Max Wind Speed 21 mph    
Max Gust Speed 24 mph    
Visibility 8.9 miles    
Events Rain , Snow    
Averages and records for this station are not official NWS values.
T = Trace of Precipitation, MM = Missing Value Source: Averaged Metar Reports

Daily Weather History Graph

Daily Weather History Graph

Search for Another Location

Airport or City:

Trip Planner

Search our weather history database for the weather conditions in past years. The results will help you decide how hot, cold, wet, or windy it might be!

Date:

Astronomy

Dec. 17, 2012 Rise Set
Actual Time 7:29 AM AST 4:23 PM AST
Civil Twilight 6:56 AM AST 4:56 PM AST
Nautical Twilight 6:19 AM AST 5:33 PM AST
Astronomical Twilight 5:44 AM AST 6:08 PM AST
Moon 10:26 AM AST (12/17) 9:49 PM AST (12/17)
Length of Visible Light 10h 00m
Length of Day
8h 54m
Waxing Crescent, 24% of the Moon is Illuminated
Dec 17
Waxing Crescent
Dec 20
First Quarter
Dec 28
Full
Jan 4
Last Quarter
Jan 11
New

Hourly Weather History & Observations

Time (AST) Temp. Windchill Dew Point Humidity Pressure Visibility Wind Dir Wind Speed Gust Speed Precip Events Conditions
12:00 AM 32.0 °F 20.5 °F 23.0 °F 69% 30.18 in 9.0 mi WNW 18.4 mph - N/A   Overcast
12:29 AM 32.0 °F 20.1 °F 23.0 °F 69% 30.18 in 7.0 mi NNW 19.6 mph - N/A Snow Light Snow
12:33 AM 32.0 °F 20.5 °F 23.0 °F 69% 30.18 in 9.0 mi NW 18.4 mph - N/A   Overcast
12:35 AM 33.8 °F 23.2 °F 24.8 °F 70% 30.18 in 9.0 mi NNW 17.3 mph - N/A Snow Light Snow
12:37 AM 32.0 °F 19.8 °F 23.0 °F 69% 30.18 in 9.0 mi NW 20.7 mph - N/A   Overcast
1:00 AM 32.0 °F 21.2 °F 23.0 °F 69% 30.18 in 9.0 mi NW 16.1 mph 24.2 mph N/A   Overcast
2:00 AM 33 °F - 24 °F 59% 30.19 in 9 mi NW 12.7 mph - -   Overcast
2:00 AM 33.8 °F 24.8 °F 24.8 °F 70% 30.19 in 9.0 mi NW 12.7 mph 20.7 mph N/A   Overcast
3:00 AM 33.8 °F 24.3 °F 24.8 °F 70% 30.18 in 9.0 mi NNW 13.8 mph - N/A   Overcast
4:00 AM 35.6 °F 25.9 °F 26.6 °F 70% 30.18 in 9.0 mi NNW 16.1 mph - N/A   Overcast
4:39 AM 35.6 °F 27.1 °F 28.4 °F 75% 30.18 in 9.0 mi NNW 12.7 mph - N/A Snow Light Snow
4:44 AM 35.6 °F 26.6 °F 28.4 °F 75% 30.17 in 9.0 mi NW 13.8 mph - N/A   Overcast
4:47 AM 35.6 °F 26.2 °F 28.4 °F 75% 30.17 in 9.0 mi NNW 15.0 mph - N/A Snow Light Snow
5:00 AM 36 °F - 29 °F 68% 30.19 in 9 mi NNW 17.3 mph - - Snow Light Snow
5:00 AM 35.6 °F 25.9 °F 30.2 °F 81% 30.19 in 9.0 mi NNW 16.1 mph - N/A Snow Light Snow
5:02 AM 35.6 °F 25.9 °F 30.2 °F 81% 30.18 in 9.0 mi NNW 16.1 mph - N/A   Overcast
5:04 AM 35.6 °F 25.9 °F 30.2 °F 81% 30.19 in 9.0 mi NNW 16.1 mph - N/A Snow Light Snow
5:08 AM 35.6 °F 26.2 °F 30.2 °F 81% 30.19 in 9.0 mi NW 15.0 mph - N/A Snow Light Snow
5:20 AM 35.6 °F 26.6 °F 30.2 °F 81% 30.18 in 9.0 mi NW 13.8 mph 20.7 mph N/A   Overcast
5:47 AM 35.6 °F 26.2 °F 30.2 °F 81% 30.18 in 9.0 mi NW 15.0 mph - N/A   Overcast
5:59 AM 35.6 °F 26.2 °F 30.2 °F 81% 30.18 in 9.0 mi NW 15.0 mph - N/A   Overcast
6:00 AM 35.6 °F 26.2 °F 30.2 °F 81% 30.19 in 9.0 mi NW 15.0 mph - N/A   Overcast
7:00 AM 37.4 °F 29.8 °F 32.0 °F 81% 30.20 in 8.0 mi NW 11.5 mph - N/A   Mostly Cloudy
7:16 AM 35.6 °F 27.5 °F 32.0 °F 87% 30.20 in 9.0 mi NW 11.5 mph - N/A   Overcast
7:33 AM 35.6 °F 28.0 °F 32.0 °F 87% 30.19 in 9.0 mi NW 10.4 mph - N/A   Mostly Cloudy
7:38 AM 37.4 °F 31.4 °F 32.0 °F 81% 30.19 in 9.0 mi NW 8.1 mph - N/A   Overcast
7:58 AM 37.4 °F 29.8 °F 32.0 °F 81% 30.20 in 9.0 mi NNW 11.5 mph - N/A   Overcast
8:00 AM 38 °F - 33 °F 74% 30.20 in 9 mi NNW 10.4 mph - -   Overcast
8:00 AM 37.4 °F 29.3 °F 32.0 °F 81% 30.20 in 9.0 mi NNW 12.7 mph - N/A   Overcast
8:51 AM 39.2 °F 33.6 °F 32.0 °F 75% 30.20 in 9.0 mi NW 8.1 mph - N/A   Overcast
8:54 AM 39.2 °F 34.2 °F 32.0 °F 75% 30.20 in 9.0 mi NW 6.9 mph - N/A Rain Light Rain
9:00 AM 39.2 °F 33.6 °F 32.0 °F 75% 30.20 in 9.0 mi NW 8.1 mph - N/A Rain Light Rain
9:01 AM 39.2 °F 33.6 °F 32.0 °F 75% 30.20 in 9.0 mi NW 8.1 mph - N/A   Mostly Cloudy
9:03 AM 39.2 °F 33.6 °F 32.0 °F 75% 30.20 in 9.0 mi NW 8.1 mph - N/A Rain Light Rain
9:08 AM 39.2 °F 33.6 °F 32.0 °F 75% 30.19 in 9.0 mi NW 8.1 mph - N/A   Mostly Cloudy
9:11 AM 39.2 °F 33.6 °F 32.0 °F 75% 30.19 in 9.0 mi NW 8.1 mph - N/A   Mostly Cloudy
9:21 AM 39.2 °F 33.6 °F 32.0 °F 75% 30.19 in 9.0 mi NNW 8.1 mph - N/A Rain Light Rain
9:48 AM 41.0 °F 38.0 °F 32.0 °F 70% 30.19 in 9.0 mi North 4.6 mph - N/A   Mostly Cloudy
10:00 AM 41.0 °F 35.2 °F 32.0 °F 70% 30.20 in 9.0 mi NNE 9.2 mph - N/A   Mostly Cloudy
10:05 AM 41.0 °F 35.8 °F 32.0 °F 70% 30.19 in 9.0 mi NE 8.1 mph - N/A Rain Light Rain
10:10 AM 41.0 °F 35.8 °F 32.0 °F 70% 30.19 in 9.0 mi NNE 8.1 mph - N/A   Mostly Cloudy
10:18 AM 41.0 °F 35.8 °F 33.8 °F 76% 30.19 in 9.0 mi NE 8.1 mph - N/A Rain Light Rain
10:35 AM 39.2 °F 33.0 °F 33.8 °F 81% 30.19 in 8.0 mi North 9.2 mph - N/A   Overcast
11:00 AM 41 °F - 32 °F 61% 30.19 in 9 mi NE 12.7 mph - -   Overcast
11:00 AM 41.0 °F 34.3 °F 32.0 °F 70% 30.19 in 9.0 mi NNE 11.5 mph - N/A   Overcast
11:57 AM 42.8 °F 36.6 °F 32.0 °F 66% 30.17 in 9.0 mi NE 11.5 mph - N/A   Mostly Cloudy
12:00 PM 42.8 °F 37.0 °F 32.0 °F 66% 30.18 in 9.0 mi NNE 10.4 mph - N/A   Mostly Cloudy
1:00 PM 41.0 °F 33.9 °F 32.0 °F 70% 30.17 in 9.0 mi NE 12.7 mph - N/A   Overcast
2:00 PM 40 °F - 32 °F 64% 30.17 in 9 mi NE 10.4 mph - -   Overcast
2:00 PM 41.0 °F 33.9 °F 32.0 °F 70% 30.17 in 9.0 mi NE 12.7 mph - N/A   Overcast
3:00 PM 41.0 °F 34.3 °F 32.0 °F 70% 30.18 in 9.0 mi ENE 11.5 mph 17.3 mph N/A   Overcast
4:00 PM 39.2 °F 31.2 °F 33.8 °F 81% 30.19 in 9.0 mi ENE 13.8 mph 19.6 mph N/A   Overcast
5:00 PM 40 °F - 32 °F 63% 30.17 in 9 mi ENE 16.1 mph - -   Overcast
5:00 PM 41.0 °F 33.1 °F 32.0 °F 70% 30.17 in 9.0 mi ENE 15.0 mph - N/A   Overcast
8:45 PM 39.2 °F 30.8 °F 30.2 °F 70% 30.16 in 9.0 mi East 15.0 mph 23.0 mph N/A   Overcast
9:00 PM 39.2 °F 31.2 °F 30.2 °F 70% 30.17 in 9.0 mi East 13.8 mph 24.2 mph N/A   Overcast
10:00 PM 39.2 °F 31.2 °F 30.2 °F 70% 30.19 in 9.0 mi East 13.8 mph - N/A   Overcast
10:55 PM 39.2 °F 30.5 °F 28.4 °F 65% 30.17 in 9.0 mi East 16.1 mph - N/A   Overcast
11:00 PM 39 °F - 28 °F 55% 30.18 in 9 mi East 16.1 mph - -   Overcast
11:00 PM 39.2 °F 30.5 °F 28.4 °F 65% 30.18 in 9.0 mi East 16.1 mph - N/A   Overcast